FW4718 Weather Reports


Display with metric or nautical units.
time (UTC)temp
F
wind
direction
speed
MPH
gust
MPH
rain 1hr
in
rain 24hr
in
rain mn
in
humidity
%
barometer
mb
20191019110527 53 235 2.0 5.0 0.00 0.12 0.00 83 1000.4
20191019110050 54 227 1.0 4.0 0.00 0.12 0.00 84 1000.4
20191019105534 54 284 1.0 7.0 0.00 0.13 0.00 83 1000.3
20191019105024 54 273 2.0 7.0 0.00 0.13 0.00 85 1000.3
20191019104542 54 17 1.0 8.0 0.00 0.13 0.00 84 1000.3
20191019104034 54 319 1.0 8.0 0.00 0.13 0.00 86 1000.2
20191019103523 53 244 2.0 8.0 0.00 0.13 0.00 84 1000.1
20191019103027 53 236 3.0 7.0 0.00 0.13 0.00 86 1000.1
20191019102524 53 232 2.0 9.0 0.00 0.13 0.00 84 1000.1
20191019102025 53 204 3.0 8.0 0.00 0.13 0.00 85 1000.0
20191019101541 53 194 4.0 11.0 0.00 0.13 0.00 85 1000.0
20191019101018 53 225 0.0 11.0 0.00 0.13 0.00 87 999.9
20191019100518 53 219 3.0 10.0 0.00 0.13 0.00 88 999.9
20191019100057 52 228 4.0 9.0 0.00 0.13 0.00 87 999.9
20191019095514 52 324 1.0 7.0 0.00 0.13 0.00 87 999.9
20191019095017 52 252 2.0 7.0 0.00 0.13 0.00 87 999.9
20191019094523 52 250 1.0 6.0 0.00 0.13 0.00 88 999.8
20191019094010 51 216 1.0 10.0 0.00 0.13 0.00 89 999.7
20191019093513 51 211 4.0 10.0 0.00 0.13 0.00 90 999.6
20191019093041 51 211 2.0 8.0 0.00 0.13 0.00 91 999.6
20191019092505 50 235 4.0 9.0 0.00 0.13 0.00 90 999.4
20191019092004 50 239 4.0 9.0 0.00 0.13 0.00 91 999.4
20191019091534 50 215 3.0 9.0 0.00 0.13 0.00 91 999.2
20191019091001 49 221 4.0 11.0 0.00 0.13 0.00 92 999.2
20191019090600 49 225 5.0 9.0 0.00 0.13 0.00 92 999.3
20191019090131 49 223 3.0 9.0 0.00 0.13 0.00 93 999.2
20191019085558 49 239 4.0 9.0 0.00 0.13 0.00 93 999.3
20191019085057 48 205 4.0 7.0 0.00 0.13 0.00 93 999.3
20191019084639 48 213 3.0 9.0 0.00 0.13 0.00 94 999.3
20191019084053 48 236 4.0 9.0 0.00 0.13 0.00 94 999.2
20191019083552 47 231 4.0 8.0 0.00 0.13 0.00 96 999.3
20191019083212 47 230 4.0 9.0 0.00 0.13 0.00 96 999.2
20191019082550 47 234 3.0 10.0 0.00 0.13 0.00 97 999.2
20191019082050 46 261 3.0 10.0 0.00 0.13 0.00 97 999.1
20191019081639 46 232 4.0 10.0 0.00 0.13 0.00 97 999.1
20191019081056 46 223 4.0 7.0 0.00 0.13 0.00 97 999.1
20191019080557 46 151 3.0 7.0 0.00 0.13 0.00 97 999.0
20191019080143 46 223 3.0 7.0 0.00 0.13 0.00 98 998.8
20191019075546 45 198 4.0 7.0 0.00 0.13 0.00 97 998.8
20191019075046 45 235 2.0 7.0 0.00 0.13 0.00 97 998.7
20191019074628 45 221 3.0 8.0 0.00 0.13 0.00 97 998.6
20191019074052 45 266 4.0 8.0 0.00 0.13 0.00 98 998.4
20191019073542 45 234 5.0 8.0 0.00 0.13 0.00 98 998.5
20191019073155 45 248 4.0 8.0 0.00 0.13 0.00 98 998.5
20191019072546 45 238 3.0 6.0 0.00 0.13 0.00 98 998.4
20191019072040 45 221 3.0 9.0 0.00 0.13 0.00 98 998.4
20191019071642 45 216 3.0 9.0 0.00 0.13 0.00 98 998.3
20191019071038 45 249 3.0 8.0 0.00 0.13 0.00 98 998.2
20191019070536 45 204 4.0 8.0 0.00 0.13 0.00 98 998.2
20191019070135 45 205 3.0 10.0 0.00 0.13 0.00 98 998.1
20191019065534 45 188 5.0 10.0 0.00 0.13 0.00 98 998.1
20191019065047 46 198 3.0 7.0 0.00 0.13 0.00 98 998.1
20191019064550 46 190 3.0 7.0 0.00 0.13 0.00 98 998.1
20191019064029 46 227 4.0 9.0 0.00 0.13 0.00 98 998.1
20191019063529 46 190 3.0 9.0 0.00 0.13 0.00 98 998.0
20191019063040 46 188 4.0 7.0 0.00 0.13 0.00 98 998.0
20191019062528 46 213 2.0 7.0 0.00 0.13 0.00 98 997.8
20191019061552 46 188 3.0 8.0 0.00 0.13 0.00 98 997.7
20191019061037 46 232 3.0 6.0 0.00 0.13 0.00 98 997.8
20191019060527 46 206 3.0 6.0 0.00 0.13 0.00 98 997.7
20191019060118 46 207 2.0 7.0 0.00 0.13 0.00 98 997.8
20191019055538 46 137 4.0 7.0 0.00 0.13 0.00 98 997.7
20191019054605 46 217 3.0 10.0 0.00 0.13 0.00 98 997.7
20191019054024 46 221 4.0 10.0 0.00 0.13 0.00 98 997.7
20191019053532 47 202 5.0 14.0 0.00 0.13 0.00 98 997.6
20191019053151 47 231 5.0 14.0 0.00 0.13 0.00 98 997.6
20191019052531 47 217 4.0 12.0 0.00 0.13 0.00 98 997.5
20191019052023 47 221 6.0 12.0 0.00 0.13 0.00 98 997.5
20191019051529 47 228 6.0 10.0 0.00 0.13 0.00 98 997.5
20191019051020 47 205 6.0 10.0 0.00 0.13 0.00 98 997.4
20191019050526 47 242 4.0 9.0 0.00 0.13 0.00 97 997.3
20191019050035 47 232 5.0 10.0 0.00 0.13 0.00 97 997.4
20191019045517 47 205 5.0 10.0 0.00 0.13 0.00 97 997.3
20191019045017 47 210 4.0 7.0 0.00 0.13 0.00 97 997.4
20191019044539 46 240 3.0 8.0 0.00 0.13 0.00 97 997.5
20191019044027 46 250 3.0 10.0 0.00 0.13 0.00 97 997.4
20191019043525 46 227 4.0 10.0 0.00 0.13 0.00 97 997.2
20191019043104 46 261 4.0 9.0 0.00 0.13 0.00 97 997.2
20191019042519 46 232 3.0 11.0 0.00 0.13 0.00 97 997.3
20191019042026 46 184 5.0 11.0 0.00 0.13 0.00 97 997.3
20191019041536 46 200 3.0 9.0 0.00 0.13 0.00 97 997.3
20191019041014 46 228 4.0 10.0 0.00 0.13 0.00 97 997.3
20191019040526 46 208 4.0 10.0 0.00 0.13 0.00 97 997.3
20191019040043 46 215 4.0 8.0 0.00 0.13 0.00 97 997.3
20191019035515 46 186 4.0 9.0 0.00 0.13 0.00 97 997.3
20191019035025 46 227 5.0 9.0 0.00 0.13 0.00 97 997.4
20191019034538 46 184 3.0 8.0 0.00 0.13 0.00 97 997.3
20191019034021 46 215 3.0 7.0 0.00 0.13 0.00 97 997.3
20191019033520 46 211 3.0 9.0 0.00 0.13 0.00 97 997.2
20191019033019 46 239 3.0 10.0 0.00 0.13 0.00 97 997.2
20191019032514 46 205 5.0 8.0 0.00 0.13 0.00 97 997.3
20191019032019 46 257 4.0 7.0 0.00 0.13 0.00 96 997.2
20191019031513 46 210 3.0 7.0 0.00 0.13 0.00 97 997.2
20191019031012 46 222 3.0 10.0 0.00 0.13 0.00 97 997.3
20191019030515 47 192 5.0 10.0 0.00 0.13 0.00 96 997.2
20191019030041 47 232 4.0 10.0 0.00 0.13 0.00 96 997.3
20191019025510 47 204 3.0 6.0 0.00 0.17 0.00 96 997.3
20191019025012 47 213 3.0 10.0 0.00 0.17 0.00 96 997.2
20191019024511 47 188 4.0 10.0 0.00 0.17 0.00 96 997.3
20191019024008 47 229 5.0 10.0 0.00 0.17 0.00 96 997.1
20191019023513 47 204 4.0 9.0 0.00 0.17 0.00 96 997.2
20191019023035 47 198 3.0 9.0 0.00 0.17 0.00 96 997.2
20191019022506 47 220 4.0 9.0 0.00 0.17 0.00 96 997.2
20191019022006 47 224 4.0 8.0 0.00 0.17 0.00 96 997.2
20191019021520 47 203 2.0 6.0 0.00 0.17 0.00 96 997.3
20191019021005 47 209 4.0 9.0 0.00 0.17 0.00 96 997.3
20191019020505 47 261 3.0 9.0 0.00 0.17 0.00 96 997.3
20191019020007 47 216 4.0 10.0 0.00 0.17 0.00 96 997.1
20191019015504 47 215 3.0 10.0 0.00 0.20 0.00 96 997.1
20191019014507 47 200 4.0 9.0 0.00 0.20 0.00 96 997.1
20191019014002 47 224 5.0 11.0 0.00 0.20 0.00 96 997.2
20191019013500 47 192 5.0 10.0 0.00 0.20 0.00 96 997.2
20191019013005 47 190 6.0 10.0 0.00 0.20 0.00 96 997.3
20191019012501 47 227 4.0 11.0 0.00 0.20 0.00 95 997.2
20191019012002 47 196 5.0 11.0 0.00 0.20 0.00 95 997.2
20191019011641 47 202 6.0 12.0 0.00 0.20 0.00 96 997.3
20191019011059 47 205 5.0 11.0 0.00 0.20 0.00 96 997.3
20191019010559 47 207 6.0 11.0 0.00 0.20 0.00 96 997.3
20191019010158 47 197 4.0 12.0 0.00 0.20 0.00 96 997.4
20191019005603 47 208 6.0 12.0 0.00 0.20 0.00 96 997.3
20191019005104 47 199 4.0 7.0 0.00 0.20 0.00 95 997.3
20191019004725 47 192 4.0 9.0 0.00 0.20 0.00 95 997.2
20191019004056 48 204 5.0 9.0 0.00 0.20 0.00 95 997.4
20191019003556 48 192 4.0 8.0 0.00 0.20 0.00 95 997.3
20191019003223 48 230 4.0 11.0 0.00 0.20 0.00 95 997.4
20191019002555 48 225 4.0 11.0 0.00 0.20 0.00 95 997.3
20191019002055 48 212 5.0 9.0 0.00 0.20 0.00 95 997.3
20191019001733 0 202 5.0 9.0 0.00 0.20 0.00 997.3
20191019001101 0 200 5.0 9.0 0.00 0.20 0.00 997.3
20191019000557 0 165 4.0 10.0 0.00 0.20 0.00 997.3
20191018235547 0 223 4.0 9.0 0.00 0.20 0.00 997.2
20191018235052 0 223 6.0 9.0 0.00 0.20 0.00 997.2
20191018234612 0 182 4.0 8.0 0.00 0.20 0.00 997.2
20191018234043 0 221 4.0 8.0 0.00 0.20 0.00 997.2
20191018233542 0 155 4.0 9.0 0.00 0.20 0.00 997.2
20191018233221 0 202 5.0 8.0 0.00 0.20 0.00 997.1
20191018232540 0 191 4.0 10.0 0.00 0.20 0.00 997.2
20191018232039 0 211 7.0 10.0 0.00 0.20 0.00 997.3
20191018231716 0 171 5.0 11.0 0.00 0.20 0.00 997.1
20191018231035 48 207 5.0 10.0 0.00 0.20 0.00 94 997.2
20191018230537 48 213 5.0 11.0 0.00 0.20 0.00 94 997.2
20191018230126 48 169 5.0 13.0 0.00 0.20 0.00 94 997.2
20191018225541 48 184 6.0 12.0 0.00 0.20 0.20 94 997.2
20191018225033 48 192 6.0 13.0 0.00 0.20 0.20 94 997.2
20191018224610 48 204 6.0 12.0 0.00 0.20 0.20 94 997.2
20191018224032 48 192 7.0 12.0 0.00 0.20 0.20 94 997.2
20191018223532 48 188 5.0 14.0 0.00 0.20 0.20 94 997.2
20191018223054 48 236 7.0 14.0 0.00 0.20 0.20 94 997.2
20191018222538 49 228 6.0 10.0 0.00 0.20 0.20 94 997.2
20191018222032 49 178 6.0 10.0 0.00 0.20 0.20 94 997.3
20191018221543 49 176 6.0 15.0 0.00 0.20 0.20 93 997.2
20191018221031 49 205 7.0 15.0 0.00 0.20 0.20 93 997.2
20191018220531 49 213 7.0 14.0 0.00 0.20 0.20 93 997.3
20191018220128 49 209 6.0 14.0 0.00 0.20 0.20 93 997.3
20191018215530 49 201 8.0 14.0 0.00 0.20 0.20 93 997.3
20191018215030 49 180 5.0 12.0 0.00 0.20 0.20 93 997.3
20191018214605 49 229 6.0 11.0 0.00 0.20 0.20 93 997.2
20191018214034 49 191 4.0 12.0 0.00 0.20 0.20 93 997.3
20191018213531 49 225 7.0 12.0 0.00 0.20 0.20 93 997.2
20191018213103 49 215 7.0 13.0 0.00 0.20 0.20 93 997.3
20191018212531 49 206 6.0 14.0 0.00 0.20 0.20 93 997.2
20191018212031 49 172 6.0 14.0 0.00 0.20 0.20 94 997.1
20191018211704 49 200 7.0 12.0 0.00 0.20 0.20 94 997.1
20191018211034 48 153 6.0 11.0 0.00 0.20 0.20 94 997.1
20191018210532 49 199 3.0 10.0 0.00 0.20 0.20 94 997.2
20191018210120 49 189 5.0 10.0 0.00 0.20 0.20 94 997.2
20191018205527 49 213 4.0 14.0 0.00 0.20 0.20 94 997.2
20191018205038 49 227 8.0 14.0 0.00 0.20 0.20 94 997.2
20191018204630 49 224 6.0 15.0 0.00 0.20 0.20 94 997.3
20191018204027 49 198 6.0 16.0 0.00 0.20 0.20 94 997.4
20191018203537 49 250 7.0 16.0 0.00 0.20 0.20 94 997.2
20191018203114 49 226 8.0 14.0 0.00 0.20 0.20 94 997.2
20191018202531 49 219 8.0 16.0 0.00 0.20 0.20 93 997.3
20191018202026 49 207 7.0 14.0 0.00 0.20 0.20 93 997.3
20191018201554 49 197 5.0 13.0 0.00 0.20 0.20 92 997.1
20191018201035 49 233 6.0 14.0 0.00 0.20 0.20 92 997.2
20191018200533 49 194 7.0 14.0 0.00 0.20 0.20 92 997.1
20191018200053 49 220 7.0 13.0 0.00 0.20 0.20 93 997.0
20191018195524 50 206 7.0 15.0 0.00 0.20 0.20 93 997.1
20191018195024 49 197 7.0 16.0 0.00 0.20 0.20 94 997.1
20191018194547 49 174 6.0 12.0 0.00 0.20 0.20 94 997.1
20191018194031 49 210 6.0 12.0 0.01 0.20 0.20 94 997.1
20191018193524 49 221 6.0 12.0 0.01 0.20 0.20 93 997.1
20191018193037 49 228 6.0 15.0 0.01 0.20 0.20 93 997.1
20191018192524 49 233 8.0 15.0 0.01 0.20 0.20 93 997.0
20191018192032 49 126 9.0 14.0 0.01 0.20 0.20 93 997.1
20191018191530 49 200 8.0 15.0 0.01 0.20 0.20 94 997.1
20191018191022 49 236 9.0 15.0 0.01 0.20 0.20 94 997.1
20191018190524 49 132 6.0 14.0 0.01 0.20 0.20 93 997.1
20191018190041 49 211 7.0 16.0 0.01 0.20 0.20 93 997.0
20191018185528 49 237 7.0 16.0 0.01 0.20 0.20 94 997.0
20191018185023 49 210 8.0 17.0 0.01 0.20 0.20 93 996.8
20191018184601 49 170 9.0 16.0 0.01 0.20 0.20 94 996.8
20191018184023 49 190 7.0 16.0 0.00 0.19 0.19 93 996.9
20191018183521 49 162 7.0 16.0 0.00 0.19 0.19 93 996.9
20191018183030 49 213 8.0 14.0 0.01 0.19 0.19 93 996.9
20191018182521 49 192 8.0 14.0 0.03 0.19 0.19 94 997.0
20191018182023 49 222 7.0 14.0 0.04 0.19 0.19 94 997.1
20191018181546 49 205 8.0 14.0 0.06 0.19 0.19 94 997.1
20191018181020 49 163 7.0 12.0 0.06 0.19 0.19 93 997.0
20191018180520 50 210 5.0 17.0 0.06 0.19 0.19 93 996.9
20191018180043 50 193 9.0 17.0 0.06 0.19 0.19 93 997.0
20191018175527 50 241 7.0 15.0 0.06 0.28 0.19 93 996.9
20191018175020 50 236 7.0 18.0 0.07 0.28 0.19 92 997.0
20191018174533 50 199 10.0 18.0 0.07 0.28 0.19 92 997.0
20191018174023 50 207 7.0 15.0 0.07 0.28 0.19 93 996.9
20191018173519 50 198 9.0 20.0 0.07 0.28 0.19 92 996.9
20191018172525 51 183 9.0 22.0 0.04 0.25 0.16 90 997.2
20191018172020 51 132 9.0 18.0 0.02 0.24 0.14 90 997.4
20191018171534 51 210 8.0 15.0 0.02 0.23 0.13 89 996.7
20191018171021 51 175 7.0 11.0 0.01 0.22 0.13 89 996.8
20191018170517 51 225 4.0 12.0 0.01 0.22 0.13 90 996.9
20191018170050 51 206 5.0 12.0 0.01 0.22 0.13 90 997.0
20191018165516 51 233 4.0 15.0 0.01 0.23 0.13 91 996.9
20191018165015 51 27 5.0 15.0 0.00 0.22 0.12 91 997.0
20191018164524 51 168 4.0 9.0 0.00 0.22 0.12 91 997.1
20191018164019 51 157 2.0 6.0 0.00 0.22 0.12 91 996.9
20191018163530 51 176 2.0 7.0 0.00 0.22 0.12 91 997.0
20191018162515 51 203 4.0 9.0 0.00 0.22 0.12 92 997.2
20191018162014 50 234 4.0 9.0 0.00 0.22 0.12 92 997.0
20191018161538 50 208 2.0 6.0 0.00 0.22 0.12 93 997.0
20191018161018 50 215 3.0 10.0 0.00 0.22 0.12 93 997.1
20191018160514 50 207 3.0 10.0 0.00 0.22 0.12 94 997.1
20191018160041 50 186 2.0 7.0 0.00 0.22 0.12 94 997.2
20191018155513 50 167 1.0 7.0 0.00 0.22 0.12 93 997.3
20191018155021 50 165 1.0 7.0 0.00 0.22 0.12 92 997.2
20191018154535 50 171 1.0 7.0 0.00 0.22 0.12 92 997.2
20191018154013 50 121 1.0 6.0 0.00 0.22 0.12 91 997.3
20191018153517 50 134 2.0 6.0 0.00 0.22 0.12 91 997.5
20191018153039 50 169 2.0 7.0 0.00 0.22 0.12 90 997.6
20191018152519 50 221 3.0 9.0 0.00 0.22 0.12 89 997.6
20191018151521 51 216 3.0 10.0 0.00 0.22 0.12 89 997.7
20191018151011 52 219 4.0 9.0 0.00 0.22 0.12 89 997.7
20191018150509 51 181 6.0 9.0 0.01 0.22 0.12 91 997.6
20191018150031 51 209 5.0 9.0 0.01 0.22 0.12 92 997.6
20191018145507 50 221 4.0 8.0 0.01 0.22 0.12 91 997.8
20191018145011 50 207 4.0 9.0 0.01 0.22 0.12 91 997.8
20191018144507 50 207 5.0 11.0 0.01 0.22 0.12 90 997.9
20191018144010 50 217 5.0 12.0 0.01 0.22 0.12 89 997.8
20191018143506 50 199 6.0 12.0 0.01 0.22 0.12 90 997.9
20191018143034 50 210 4.0 12.0 0.01 0.22 0.12 89 998.0
20191018142506 50 215 4.0 12.0 0.01 0.22 0.12 90 997.9
20191018142006 50 221 5.0 10.0 0.01 0.22 0.12 92 998.1
20191018141512 49 229 5.0 15.0 0.01 0.22 0.12 91 998.3
20191018141009 49 165 6.0 15.0 0.02 0.22 0.12 90 998.2
20191018140504 49 207 6.0 11.0 0.01 0.21 0.11 90 998.3
20191018140036 49 229 7.0 11.0 0.01 0.21 0.11 89 998.4
20191018135504 50 224 5.0 12.0 0.01 0.21 0.11 89 998.3
20191018135004 50 184 5.0 13.0 0.02 0.21 0.11 89 998.0
20191018134505 50 226 8.0 17.0 0.02 0.21 0.11 90 998.0
20191018134003 50 221 7.0 11.0 0.02 0.21 0.11 93 998.0
20191018133506 49 162 5.0 12.0 0.02 0.21 0.11 94 998.1
20191018133015 48 229 5.0 13.0 0.02 0.21 0.11 94 998.0
20191018132505 48 257 5.0 13.0 0.02 0.21 0.11 93 998.0
20191018132006 48 264 6.0 12.0 0.02 0.21 0.11 93 998.0
20191018131502 48 202 5.0 17.0 0.02 0.21 0.11 93 997.8
20191018130559 49 178 8.0 16.0 0.01 0.20 0.10 93 998.1
20191018130158 49 207 6.0 17.0 0.01 0.20 0.10 93 998.3
20191018125100 50 246 8.0 14.0 0.00 0.20 0.09 93 998.3
20191018124702 50 211 9.0 15.0 0.00 0.20 0.09 93 998.3
20191018124100 50 248 6.0 16.0 0.00 0.20 0.09 93 998.4
20191018123603 50 198 9.0 16.0 0.00 0.20 0.09 94 998.4
20191018123226 50 188 7.0 13.0 0.00 0.20 0.09 94 998.4
20191018122558 49 202 6.0 11.0 0.00 0.20 0.09 94 998.3
20191018122110 49 193 4.0 13.0 0.00 0.20 0.09 93 998.3
20191018121700 49 233 5.0 13.0 0.00 0.20 0.09 92 998.4
20191018121059 49 236 5.0 14.0 0.00 0.20 0.09 93 998.4
20191018120556 49 219 4.0 11.0 0.00 0.20 0.09 92 998.3
20191018120215 49 184 6.0 16.0 0.01 0.20 0.09 91 998.4
20191018115556 49 235 8.0 16.0 0.02 0.20 0.09 91 998.4
20191018115056 49 199 6.0 16.0 0.02 0.20 0.09 92 998.4
20191018114711 49 246 7.0 16.0 0.02 0.20 0.09 91 998.3
20191018114117 49 212 7.0 15.0 0.02 0.20 0.09 91 998.2
20191018113555 48 195 7.0 13.0 0.02 0.20 0.09 93 998.5
20191018113210 48 208 9.0 14.0 0.02 0.20 0.09 93 998.6
20191018112554 48 195 7.0 12.0 0.02 0.20 0.09 95 998.6
20191018112054 47 199 4.0 13.0 0.02 0.20 0.09 95 998.6
20191018111632 47 227 5.0 13.0 0.02 0.20 0.09 93 998.6
20191018111103 47 230 7.0 15.0 0.02 0.20 0.09 92 998.7